Flag for Micronesia Weather past 2 weeks in Kolonia, Pohnpei, Micronesia

85 °F

Broken clouds.

Feels Like: 94 °F
Forecast: 79 / 86 °F
Wind: 8 mph from East

Location: Pohnpei

Current Time: Nov 30, 2015 at 5:46:06 PM

Latest Report: Nov 30, 2015 at 4:52 PM

Visibility: 15 mi

Pressure: 29.75 "Hg

Humidity: 74%

Dew point: 76 °F

Location of KoloniaLocation

Historic Weather in Kolonia — Graph


Kolonia temperature yesterday

Maximum temperature yesterday: 87 °F (at 11:50 AM)
Minimum temperature yesterday: 78 °F (at 3:53 AM)
Average temperature yesterday: 83 °F

Past Weeks' High & Low Weather Summary

High89 °F (Nov 22, 1:52 PM)100% (Nov 19, 3:00 PM)29.88 "Hg (Nov 19, 3:00 PM)
Low74 °F (Nov 20, 3:55 AM)67% (Nov 28, 9:50 AM)29.72 "Hg (Nov 15, 3:53 PM)
Average82 °F85%29.80 "Hg
* Reported Nov 15 3:53 PM — Nov 30 3:50 PM, Kolonia, Weather by CustomWeather, © 2015

Note: Actual official high and low records may vary slightly from our data, if they occured in-between our weather recording intervals... More about our weather records


Kolonia weather history for previous 24 hours

Time TempWeatherWind HumidityBarometerVisibility
3:50 PM
Mon, Nov 30
87 °FBroken clouds.9 mph68%29.74 "Hg15 mi
2:50 PM87 °FScattered clouds.12 mph80%29.74 "Hg15 mi
1:55 PM87 °FBroken clouds.6 mph78%29.75 "Hg15 mi
12:50 PM86 °FBroken clouds.7 mph82%29.77 "Hg15 mi
11:50 AM87 °FCloudy.9 mph80%29.80 "Hg15 mi
10:50 AM85 °FScattered clouds.5 mph75%29.83 "Hg15 mi
8:55 AM83 °FBroken clouds.7 mph80%29.85 "Hg15 mi
7:53 AM82 °FBroken clouds.3 mph88%29.84 "Hg15 mi
6:55 AM79 °FBroken clouds.3 mph95%29.83 "Hg15 mi
5:53 AM81 °FSprinkles. Partly cloudy.5 mph84%29.81 "Hg15 mi
4:53 AM81 °FPartly cloudy.5 mph83%29.80 "Hg15 mi
3:50 AM81 °FPassing clouds.12 mph80%29.80 "Hg15 mi
2:52 AM81 °FPassing clouds.8 mph80%29.79 "Hg15 mi
1:52 AM82 °FPassing clouds.7 mph78%29.82 "Hg15 mi
12:52 AM82 °FPassing clouds.7 mph75%29.83 "Hg15 mi
11:53 PM
Sun, Nov 29
82 °FPassing clouds.8 mph75%29.83 "Hg15 mi
10:52 PM82 °FPassing clouds.6 mph78%29.84 "Hg15 mi
9:53 PM82 °FPassing clouds.7 mph79%29.85 "Hg15 mi
8:52 PM82 °FPassing clouds.12 mph78%29.85 "Hg15 mi
7:53 PM82 °FPartly cloudy.6 mph81%29.83 "Hg15 mi
6:51 PM82 °FPartly cloudy.7 mph82%29.80 "Hg15 mi
5:53 PM83 °FPartly sunny.9 mph81%29.78 "Hg15 mi
Weather by CustomWeather, © 2015

See weather overviewHow to use our weather pages